DMSP 5D-2 F13 DEB, 42282

Orbit data source: Space-Track

DMSP 5D-2 F13 DEB, 42282 is space debris in SSO originally from a launch on Fri, 24 Mar 1995 UTC launched from the Air Force Western Test Range (AFWTR). Debris objects in space refer to the collection of defunct objects orbiting the Earth. Examples of debris include non-operational satellites, rocket bodies, and fragments generated from explosions, collisions, or faulty payload assembly.

Loading next visibility...
Identifier
42282, 1995-015GY
Orbit
SSO
Country
Flag of USUS
Related business
Manufacturer
Unknown
Mission
Spacecraft
Bus & Motor
Unknown
Mass
Unknown
Launch date (UTC)
1995-03-24 (31 years ago)
Launch vehicle
Unknown
Launch site
Air Force Western Test Range (AFWTR)
Object type
Payload
Rocket body
Debris
Shape & HBR
Unknown shape, 0.1 m
Radar Cross Section
Small (<0.1 m²)

Expand to show TLE details & history
Last TLE update: 1 day ago

TLE from 1 day ago
0 DMSP 5D-2 F13 DEB
1 42282U 95015GY  26119.01140283  .00004255  00000-0  16429-2 0  9996
2 42282  98.9362 139.0847 0033575  94.4371 266.0648 14.30415302568329
Epoch: 2026-04-29T00:16Z
TLE epoch observation values (Epoch: 2026-04-29T00:16:25.204Z)
Latitude
0.00002°
Longitude
-81.99881°
Altitude
794.997 km
Speed
7.455 km/s
True Right ascension
09h 16m 20s
True Declination
0° 00' 00"
Sunlit
Object was in daylight at epoch
Visualization orbit readout
Latitude
Unknown
Longitude
Unknown
Altitude
Unknown
Speed
Unknown
Apparent Right ascension
Unknown
Apparent Declination
Unknown
Sunlit
N/A
Visualization observer readout
Local Sidereal Time
10:43:04
Azimuth
Unknown
Elevation
Unknown
Doppler factor
Unknown
Orbital elements
Apogee altitude
811.557 km
Perigee altitude
763.44 km
Semi-major axis
7,165.636 km
Eccentricity
0.00336
Inclination
98.9362°
RAAN
139.0847°
Arg. of periapsis
94.4371°
True anomaly
265.68108°
Mean anomaly
266.0648°
Eccentric anomaly
265.87293°
Mean motion
3.57817 °/min
Orbital period
100.61 mins
BSTAR
0.0016429
Loading maneuver chart data...
Computing Atmospheric mass density...

Documentation

Showing up to 5 results
|